This is the latest recevied weather packets stored in our database for station/object KD0SBN-3. If no packets are shown the sender has not sent any weather packets the latest 10 day(s).
| Time | Temp. | Humidity | Pressure | Rain* | Wind** | Luminosity | Snow |
|---|---|---|---|---|---|---|---|
| 1777475781 | 2.78° C | 73% | 1026.7 hPa | 0 mm | - | 246 W/m² | - |
| 1777475478 | 2.78° C | 74% | 1026.8 hPa | 0 mm | - | 184 W/m² | - |
| 1777475174 | 2.22° C | 75% | 1027 hPa | 0 mm | - | 166 W/m² | - |
| 1777474870 | 2.78° C | 74% | 1027 hPa | 0 mm | - | 155 W/m² | - |
| 1777474565 | 2.78° C | 73% | 1027.1 hPa | 0 mm | - | 144 W/m² | - |
| 1777474262 | 2.22° C | 75% | 1027.2 hPa | 0 mm | - | 165 W/m² | - |
| 1777473959 | 2.22° C | 75% | 1027 hPa | 0 mm | - | 171 W/m² | - |
| 1777473657 | 2.22° C | 76% | 1027 hPa | 0 mm | - | 159 W/m² | - |
| 1777473353 | 1.67° C | 76% | 1027 hPa | 0 mm | - | 148 W/m² | - |
| 1777473049 | 1.67° C | 77% | 1027.1 hPa | 0 mm | - | 135 W/m² | - |
| 1777472745 | 1.67° C | 77% | 1027 hPa | 0 mm | - | 138 W/m² | - |
| 1777472442 | 1.67° C | 78% | 1027 hPa | 0 mm | - | 146 W/m² | - |
| 1777472140 | 1.67° C | 77% | 1026.8 hPa | 0 mm | - | 143 W/m² | - |
| 1777471839 | 1.67° C | 77% | 1026.8 hPa | 0 mm | - | 134 W/m² | - |
| 1777471536 | 1.11° C | 78% | 1026.8 hPa | 0 mm | - | 103 W/m² | - |
| 1777471233 | 1.11° C | 79% | 1027 hPa | 0 mm | - | 85 W/m² | - |
| 1777470930 | 0.56° C | 79% | 1026.8 hPa | 0 mm | - | 79 W/m² | - |
| 1777470627 | 0.56° C | 80% | 1027.1 hPa | 0 mm | - | 79 W/m² | - |
| 1777470323 | 0.56° C | 80% | 1026.7 hPa | 0 mm | - | 69 W/m² | - |
| 1777470020 | 0.56° C | 80% | 1026.8 hPa | 0 mm | - | 68 W/m² | - |
| 1777469715 | 0.56° C | 80% | 1026.3 hPa | 0 mm | - | 67 W/m² | - |
| 1777469412 | 0.56° C | 80% | 1026.7 hPa | 0 mm | - | 58 W/m² | - |
| 1777469107 | 0.56° C | 78% | 1026.4 hPa | 0 mm | - | 56 W/m² | - |
| 1777468807 | 0.56° C | 77% | 1026.8 hPa | 0 mm | - | 54 W/m² | - |
| 1777468503 | 0.56° C | 76% | 1026.6 hPa | 0 mm | - | 46 W/m² | - |
* Rain latest hour (hover to see other rain measurements)
** Current wind speed in m/s (hover to see current wind gust speed)